Dewpoint
68 68 68 68 66 64 62 63 63 63 64 63 63 62 61 61 64 65 66 65 65 65 64 65 65 65 65 65 65 65 62 63 61
67 67 66 66 65 63 61 62 63 64 64 63 62 61 61 60 62 63 64 64 64 64 64 64 63 63 63 64 64 64 64 64 65
66 66 66 65 63 62 62 62 63 64 64 63 62 60 61 60 61 63 63 63 61 60 60 61 61 61 60 61 63 63 63 63 63
65 65 65 64 63 63 63 63 64 64 63 63 62 60 60 60 61 62 62 62 61 59 59 59 59 59 59 59 58 59 60 60 60
65 65 64 63 63 64 64 65 64 62 63 62 61 60 59 57 61 61 62 61 60 59 58 58 57 57 57 56 55 55 56 56 56
64 63 63 64 64 65 65 64 62 61 62 61 60 59 58 56 60 61 61 60 60 59 58 56 55 55 54 53 53 53 53 53 53
59 62 63 64 65 65 65 62 61 59 60 58 58 57 57 53 60 61 60 59 59 58 57 54 53 52 52 52 52 52 52 51 52
60 61 60 61 64 65 64 61 57 55 56 56 55 55 51 50 59 61 60 59 58 57 56 52 52 51 52 52 52 51 50 51 51
57 61 60 60 62 61 63 61 57 53 48 53 52 50 49 46 58 61 60 58 57 55 54 51 51 51 51 51 51 50 50 51 50
55 56 59 59 60 60 61 60 57 51 48 47 47 48 46 41 50 60 60 58 55 53 52 51 50 50 50 50 50 49 49 49 49
55 54 56 57 58 59 59 58 56 52 49 46 45 45 42 38 46 59 58 57 55 52 51 49 48 49 48 49 48 46 46 45 46
57 56 56 55 56 56 57 56 55 52 48 45 43 42 39 37 39 57 57 56 54 53 51 48 47 47 47 47 46 44 42 42 43
58 58 58 58 56 56 56 56 55 51 47 44 41 40 39 37 38 44 56 54 52 53 50 47 45 45 46 44 44 42 40 39 40
59 58 59 58 58 58 57 56 55 52 48 44 42 38 38 37 36 41 48 53 51 49 49 48 46 45 42 42 42 40 39 38 37
59 58 58 58 58 59 58 57 56 53 50 45 42 38 38 38 36 37 41 45 47 46 45 44 43 44 40 41 40 38 38 37 38
61 59 59 58 57 58 59 58 56 53 51 45 41 39 37 35 37 36 38 41 41 42 41 40 39 40 39 38 37 37 36 38 37
62 61 60 60 59 58 59 58 57 54 51 45 39 36 37 36 34 35 37 39 40 39 39 37 36 36 37 37 37 36 36 34 35
64 63 62 61 60 59 58 59 58 56 52 46 42 43 41 36 35 33 34 36 38 38 37 36 34 33 34 37 35 34 31 34 37
63 63 63 62 62 61 60 59 59 58 52 49 44 48 43 38 34 33 32 34 35 36 35 34 32 30 33 35 34 33 35 34 35
62 62 61 62 63 62 62 60 60 60 56 50 47 46 42 37 38 33 31 32 32 34 33 31 29 28 31 33 37 38 34 33 34
Wind_Speed
16 17 18 18 16 15 14 13 12 11 11 10 6 2 4 8 16 16 16 15 19 19 16 15 19 21 19 18 17 7 8 7 7
15 16 15 15 14 13 12 12 11 10 9 8 4 2 5 4 14 13 15 13 17 18 17 16 15 15 16 18 21 20 17 19 17
13 14 13 13 12 12 11 11 10 9 7 5 3 3 7 9 14 14 13 13 14 14 12 12 13 14 15 15 16 17 18 17 18
12 11 12 12 11 11 11 10 9 7 6 4 1 3 6 9 15 14 12 12 12 13 13 12 12 14 15 15 15 14 13 14 14
9 9 10 10 10 10 11 10 8 7 6 4 1 4 6 3 14 14 11 12 11 11 11 11 11 12 13 13 13 14 14 14 14
11 9 11 9 10 10 11 10 9 7 6 4 3 4 6 5 14 12 12 10 10 9 10 10 10 11 11 12 12 13 12 13 13
12 14 11 9 9 9 11 10 9 9 9 6 5 7 9 5 14 12 13 10 9 9 9 9 9 10 10 11 11 11 11 11 12
14 11 9 8 9 9 9 7 7 10 10 11 10 9 2 3 14 13 12 10 8 8 9 8 9 9 9 10 10 10 10 10 11
14 13 13 12 13 13 14 12 12 13 6 12 10 7 3 1 13 14 15 11 10 9 9 8 9 8 9 8 9 9 10 10 10
15 14 15 15 15 15 14 15 15 11 7 8 6 9 8 5 12 13 16 13 12 11 10 10 9 9 8 8 8 8 9 9 9
15 15 15 16 14 16 15 15 12 12 11 10 8 8 9 9 11 15 15 15 13 12 11 10 10 9 9 8 8 7 8 8 7
13 13 13 13 12 11 10 10 12 11 11 11 10 7 8 8 10 16 15 15 14 14 13 12 11 10 10 10 9 8 7 6 5
13 15 14 14 15 14 10 10 10 13 12 10 11 10 8 10 11 12 15 15 13 13 14 14 14 13 12 10 10 8 7 6 4
17 15 15 14 15 16 16 12 11 12 10 12 11 11 10 9 10 13 14 18 17 15 14 15 14 14 13 13 12 10 8 6 4
18 16 17 17 16 15 17 14 13 13 14 14 13 13 11 12 12 13 13 14 16 17 18 16 13 16 16 15 13 11 10 7 4
20 17 18 17 17 17 18 17 16 17 14 12 8 7 11 11 13 14 14 15 16 14 17 16 14 13 15 16 15 12 9 7 5
15 18 16 17 14 16 18 21 18 14 18 13 9 6 7 15 16 14 15 17 17 17 17 16 16 15 13 12 15 13 11 9 7
14 9 15 16 15 18 16 19 21 21 17 19 10 7 12 8 10 20 18 15 16 16 17 18 17 17 16 16 14 14 11 9 7
20 18 12 13 16 16 17 16 19 12 19 11 21 8 5 7 6 6 16 16 16 17 16 16 16 16 16 17 15 13 12 10 9
18 19 17 16 11 14 15 15 15 20 16 20 12 19 9 7 4 8 10 11 13 13 16 15 13 14 15 14 15 16 12 10 9
Wind_Direction
99 98 99 101 105 107 108 108 105 99 92 87 81 1 332 357 76 74 59 76 71 82 93 80 72 63 78 67 62 118 81 69 74
105 107 107 106 106 105 108 110 109 105 98 90 71 295 310 337 90 91 82 74 72 73 71 70 68 68 66 61 62 72 78 74 77
120 118 117 115 114 112 112 114 115 110 101 90 58 335 338 357 109 95 90 83 82 79 73 69 70 73 67 69 64 64 64 67 66
134 131 127 123 120 120 122 122 118 112 100 89 32 310 322 333 111 99 95 97 88 85 80 80 79 78 77 75 74 73 72 72 72
135 134 133 133 133 134 133 127 123 119 116 115 195 287 309 37 102 104 99 101 99 96 91 86 86 84 86 84 80 78 75 74 72
160 182 147 147 149 153 147 140 138 137 141 144 191 263 275 202 111 114 110 108 110 103 101 97 96 94 90 88 86 83 79 77 73
169 144 152 164 170 172 158 155 161 169 164 173 209 234 267 87 118 124 120 120 123 120 116 110 106 102 100 96 91 88 85 80 78
136 147 163 176 186 171 160 167 194 209 198 170 203 230 133 134 129 134 131 131 134 135 129 124 116 110 106 100 96 93 88 84 77
169 164 177 197 182 192 187 190 206 230 209 182 208 144 191 180 138 148 144 148 151 150 146 140 129 122 114 109 101 94 91 88 83
180 186 183 197 185 203 198 195 202 193 202 235 214 167 185 196 141 154 153 155 159 161 161 158 149 142 131 123 113 102 94 90 86
189 206 192 197 193 197 211 199 179 181 199 214 212 194 194 190 145 155 161 159 164 172 172 172 165 157 148 139 129 116 105 98 92
195 209 207 203 212 218 210 194 185 189 193 199 203 209 196 188 171 163 168 167 173 182 184 182 179 175 166 159 155 145 131 117 104
210 205 218 204 205 211 217 206 198 192 190 195 202 207 207 194 192 172 172 172 176 188 190 191 187 186 182 177 169 162 148 138 130
210 215 213 221 206 202 200 211 198 199 196 197 210 202 204 211 206 193 177 182 180 182 187 188 191 191 189 188 181 177 167 152 148
203 211 219 213 225 208 195 198 202 193 203 201 215 198 205 207 216 203 200 188 178 184 183 181 193 185 194 190 187 186 184 180 178
213 205 214 213 216 217 196 200 205 205 191 187 211 203 209 216 219 213 209 199 194 176 180 182 180 185 197 198 193 192 195 194 210
218 212 215 219 224 222 201 201 205 200 190 183 155 218 243 235 224 218 215 205 193 197 184 185 184 189 194 196 194 194 196 203 210
277 258 218 219 225 227 223 208 206 207 197 188 167 192 221 194 216 220 215 207 200 199 199 189 187 183 189 191 194 191 197 196 192
235 251 272 238 227 234 223 221 209 208 201 204 217 228 151 193 201 224 217 210 209 201 202 199 196 180 173 174 182 183 184 190 189
214 223 236 252 248 234 241 239 215 209 212 207 204 228 233 226 169 204 212 223 218 203 201 195 185 177 162 161 172 172 183 195 196